| time (UTC) | temp C | wind direction | speed KPH | gust KPH | rain 1hr cm | rain 24hr cm | rain mn cm | humidity % | barometer mb |
| 20260507161629 | 33 | 45 | 1.6 | 14.5 | 0.00 | 0.00 | 0.00 | 100 | 1018.3 |
| 20260507161129 | 33 | 334 | 8.0 | 14.5 | 0.00 | 0.00 | 0.00 | 100 | 1019.0 |
| 20260507160629 | 33 | 310 | 0.0 | 16.1 | 0.00 | 0.00 | 0.00 | 100 | 1019.0 |
| 20260507160113 | 33 | 5 | 6.4 | 17.7 | 0.00 | 0.00 | 0.00 | 100 | 1018.9 |
| 20260507155614 | 33 | 74 | 3.2 | 17.7 | 0.00 | 0.00 | 0.00 | 100 | 1018.8 |
| 20260507155342 | 33 | 42 | 0.0 | 17.7 | 0.00 | 0.00 | 0.00 | 100 | 1018.2 |
| 20260507154842 | 33 | 94 | 6.4 | 14.5 | 0.00 | 0.00 | 0.00 | 100 | 1018.0 |
| 20260507154111 | 33 | 99 | 4.8 | 19.3 | 0.00 | 0.00 | 0.00 | 100 | 1018.2 |
| 20260507153612 | 33 | 120 | 9.7 | 19.3 | 0.00 | 0.00 | 0.00 | 100 | 1018.2 |
| 20260507153112 | 33 | 357 | 9.7 | 17.7 | 0.00 | 0.00 | 0.00 | 100 | 1018.6 |
| 20260507152612 | 33 | 358 | 6.4 | 16.1 | 0.00 | 0.00 | 0.00 | 100 | 1018.3 |
| 20260507152110 | 33 | 57 | 4.8 | 16.1 | 0.00 | 0.00 | 0.00 | 100 | 1018.0 |
| 20260507151610 | 33 | 4 | 9.7 | 16.1 | 0.00 | 0.00 | 0.00 | 100 | 1018.0 |
| 20260507151110 | 33 | 347 | 9.7 | 17.7 | 0.00 | 0.00 | 0.00 | 100 | 1018.2 |
| 20260507150609 | 33 | 333 | 11.3 | 17.7 | 0.00 | 0.00 | 0.00 | 100 | 1018.3 |
| 20260507150108 | 33 | 358 | 3.2 | 16.1 | 0.00 | 0.00 | 0.00 | 100 | 1018.3 |
| 20260507145608 | 33 | 310 | 6.4 | 14.5 | 0.00 | 0.00 | 0.00 | 100 | 1018.3 |
| 20260507145108 | 33 | 14 | 4.8 | 16.1 | 0.00 | 0.00 | 0.00 | 100 | 1018.6 |
| 20260507144609 | 33 | 305 | 1.6 | 16.1 | 0.00 | 0.00 | 0.00 | 100 | 1018.6 |
| 20260507144108 | 33 | 330 | 1.6 | 12.9 | 0.00 | 0.00 | 0.00 | 100 | 1018.6 |
| 20260507143103 | 33 | 5 | 6.4 | 16.1 | 0.00 | 0.00 | 0.00 | 100 | 1018.3 |
| 20260507142603 | 33 | 307 | 6.4 | 22.5 | 0.00 | 0.00 | 0.00 | 100 | 1018.0 |
| 20260507142103 | 33 | 333 | 4.8 | 22.5 | 0.00 | 0.00 | 0.00 | 100 | 1017.7 |
| 20260507141543 | 33 | 306 | 6.4 | 17.7 | 0.00 | 0.00 | 0.00 | 100 | 1017.8 |
| 20260507141315 | 33 | 8 | 0.0 | 16.1 | 0.00 | 0.00 | 0.00 | 100 | 1018.0 |
| 20260507140543 | 33 | 56 | 4.8 | 17.7 | 0.00 | 0.00 | 0.00 | 100 | 1018.0 |
| 20260507140043 | 33 | 358 | 12.9 | 22.5 | 0.00 | 0.00 | 0.00 | 100 | 1018.0 |
| 20260507135814 | 33 | 108 | 3.2 | 22.5 | 0.00 | 0.00 | 0.00 | 100 | 1017.8 |
| 20260507135025 | 33 | 354 | 3.2 | 17.7 | 0.00 | 0.00 | 0.00 | 100 | 1017.6 |
| 20260507134523 | 33 | 358 | 9.7 | 17.7 | 0.00 | 0.00 | 0.00 | 100 | 1017.6 |
| 20260507134013 | 33 | 333 | 6.4 | 20.9 | 0.00 | 0.00 | 0.00 | 100 | 1017.2 |
| 20260507133505 | 33 | 358 | 9.7 | 20.9 | 0.00 | 0.00 | 0.00 | 100 | 1017.2 |
| 20260507133002 | 33 | 319 | 6.4 | 19.3 | 0.00 | 0.00 | 0.00 | 100 | 1017.1 |
| 20260507132500 | 33 | 57 | 8.0 | 24.1 | 0.00 | 0.00 | 0.00 | 100 | 1017.2 |
| 20260507131948 | 33 | 7 | 9.7 | 20.9 | 0.00 | 0.00 | 0.00 | 100 | 1017.2 |
| 20260507131944 | 33 | 12 | 12.9 | 24.1 | 0.00 | 0.00 | 0.00 | 100 | 1017.2 |
| 20260507130944 | 33 | 327 | 11.3 | 17.7 | 0.00 | 0.00 | 0.00 | 100 | 1017.1 |
| 20260507130444 | 33 | 35 | 6.4 | 17.7 | 0.00 | 0.00 | 0.00 | 100 | 1017.1 |
| 20260507125943 | 33 | 307 | 9.7 | 17.7 | 0.00 | 0.00 | 0.00 | 100 | 1017.2 |
| 20260507125444 | 33 | 26 | 3.2 | 17.7 | 0.00 | 0.00 | 0.00 | 100 | 1017.3 |
| 20260507124938 | 32 | 4 | 6.4 | 19.3 | 0.00 | 0.00 | 0.00 | 100 | 1017.3 |
| 20260507124438 | 32 | 37 | 3.2 | 19.3 | 0.00 | 0.00 | 0.00 | 100 | 1017.1 |
| 20260507124209 | 32 | 5 | 8.0 | 17.7 | 0.00 | 0.00 | 0.00 | 100 | 1017.1 |
| 20260507123438 | 32 | 21 | 6.4 | 17.7 | 0.00 | 0.00 | 0.00 | 100 | 1017.2 |
| 20260507122938 | 33 | 358 | 8.0 | 20.9 | 0.00 | 0.00 | 0.00 | 100 | 1017.1 |
| 20260507122435 | 33 | 12 | 4.8 | 20.9 | 0.00 | 0.00 | 0.00 | 100 | 1017.3 |
| 20260507121935 | 33 | 0 | 6.4 | 19.3 | 0.00 | 0.00 | 0.00 | 100 | 1017.2 |
| 20260507121435 | 33 | 37 | 11.3 | 20.9 | 0.00 | 0.00 | 0.00 | 100 | 1017.0 |
| 20260507121204 | 33 | 326 | 6.4 | 20.9 | 0.00 | 0.00 | 0.00 | 100 | 1016.7 |
| 20260507120434 | 33 | 358 | 6.4 | 16.1 | 0.00 | 0.00 | 0.00 | 100 | 1016.7 |
| 20260507115934 | 33 | 37 | 0.0 | 17.7 | 0.00 | 0.00 | 0.00 | 100 | 1016.5 |
| 20260507115433 | 33 | 28 | 8.0 | 22.5 | 0.00 | 0.00 | 0.00 | 100 | 1016.5 |
| 20260507114931 | 33 | 30 | 4.8 | 22.5 | 0.00 | 0.00 | 0.00 | 100 | 1016.5 |
| 20260507114423 | 33 | 343 | 9.7 | 20.9 | 0.00 | 0.00 | 0.00 | 100 | 1016.4 |
| 20260507113923 | 33 | 330 | 11.3 | 22.5 | 0.00 | 0.00 | 0.00 | 100 | 1016.2 |
| 20260507113422 | 33 | 73 | 3.2 | 22.5 | 0.00 | 0.00 | 0.00 | 100 | 1016.4 |
| 20260507112923 | 33 | 327 | 9.7 | 19.3 | 0.00 | 0.00 | 0.00 | 100 | 1016.1 |
| 20260507112655 | 33 | 358 | 6.4 | 17.7 | 0.00 | 0.00 | 0.00 | 100 | 1016.0 |
| 20260507111921 | 33 | 358 | 6.4 | 17.7 | 0.00 | 0.00 | 0.00 | 100 | 1016.0 |
| 20260507111421 | 33 | 340 | 6.4 | 17.7 | 0.00 | 0.00 | 0.00 | 100 | 1016.0 |
| 20260507110922 | 33 | 358 | 8.0 | 20.9 | 0.00 | 0.00 | 0.00 | 100 | 1016.1 |
| 20260507110418 | 33 | 324 | 9.7 | 20.9 | 0.00 | 0.00 | 0.00 | 100 | 1016.2 |
| 20260507105918 | 33 | 358 | 4.8 | 19.3 | 0.00 | 0.00 | 0.00 | 100 | 1016.1 |
| 20260507105417 | 33 | 90 | 12.9 | 19.3 | 0.00 | 0.00 | 0.00 | 100 | 1016.3 |
| 20260507105143 | 33 | 15 | 8.0 | 17.7 | 0.00 | 0.00 | 0.00 | 100 | 1016.3 |
| 20260507104412 | 33 | 1 | 4.8 | 17.7 | 0.00 | 0.00 | 0.00 | 100 | 1016.3 |
| 20260507103913 | 33 | 358 | 3.2 | 19.3 | 0.00 | 0.00 | 0.00 | 100 | 1016.3 |
| 20260507103641 | 33 | 333 | 9.7 | 19.3 | 0.00 | 0.00 | 0.00 | 100 | 1016.1 |
| 20260507102911 | 33 | 26 | 4.8 | 17.7 | 0.00 | 0.00 | 0.00 | 100 | 1015.9 |
| 20260507102411 | 33 | 92 | 6.4 | 29.0 | 0.00 | 0.00 | 0.00 | 100 | 1015.6 |
| 20260507101903 | 33 | 32 | 8.0 | 29.0 | 0.00 | 0.00 | 0.00 | 100 | 1015.6 |
| 20260507101635 | 33 | 8 | 4.8 | 19.3 | 0.00 | 0.00 | 0.00 | 100 | 1015.9 |
| 20260507100903 | 33 | 358 | 11.3 | 17.7 | 0.00 | 0.00 | 0.00 | 100 | 1015.4 |
| 20260507100359 | 33 | 329 | 6.4 | 16.1 | 0.00 | 0.00 | 0.00 | 100 | 1015.7 |
| 20260507100130 | 33 | 344 | 8.0 | 16.1 | 0.00 | 0.00 | 0.00 | 100 | 1015.6 |
| 20260507095358 | 33 | 303 | 6.4 | 11.3 | 0.00 | 0.00 | 0.00 | 100 | 1015.3 |
| 20260507094903 | 33 | 336 | 3.2 | 16.1 | 0.00 | 0.00 | 0.00 | 100 | 1015.8 |
| 20260507094859 | 33 | 29 | 4.8 | 12.9 | 0.00 | 0.00 | 0.00 | 100 | 1015.6 |
| 20260507093859 | 33 | 355 | 4.8 | 16.1 | 0.00 | 0.00 | 0.00 | 100 | 1015.8 |
| 20260507093346 | 33 | 73 | 1.6 | 14.5 | 0.00 | 0.00 | 0.00 | 100 | 1015.7 |
| 20260507092844 | 33 | 36 | 6.4 | 11.3 | 0.00 | 0.00 | 0.00 | 100 | 1015.7 |
| 20260507092345 | 33 | 19 | 1.6 | 11.3 | 0.00 | 0.00 | 0.00 | 100 | 1015.6 |
| 20260507091842 | 33 | 2 | 0.0 | 8.0 | 0.00 | 0.00 | 0.00 | 100 | 1015.6 |
| 20260507091327 | 33 | 16 | 1.6 | 12.9 | 0.00 | 0.00 | 0.00 | 100 | 1015.7 |
| 20260507090822 | 33 | 29 | 1.6 | 16.1 | 0.00 | 0.00 | 0.00 | 100 | 1015.7 |
| 20260507090314 | 33 | 5 | 8.0 | 16.1 | 0.00 | 0.00 | 0.00 | 100 | 1015.3 |
| 20260507085814 | 33 | 4 | 1.6 | 9.7 | 0.00 | 0.00 | 0.00 | 100 | 1015.1 |
| 20260507085312 | 34 | 331 | 0.0 | 16.1 | 0.00 | 0.00 | 0.00 | 100 | 1015.1 |
| 20260507084812 | 33 | 316 | 9.7 | 16.1 | 0.00 | 0.00 | 0.00 | 100 | 1014.9 |
| 20260507084303 | 34 | 1 | 3.2 | 16.1 | 0.00 | 0.00 | 0.00 | 100 | 1014.8 |
| 20260507083804 | 34 | 303 | 6.4 | 12.9 | 0.00 | 0.00 | 0.00 | 100 | 1014.8 |
| 20260507083300 | 34 | 337 | 6.4 | 11.3 | 0.00 | 0.00 | 0.00 | 100 | 1015.0 |
| 20260507082801 | 34 | 7 | 0.0 | 16.1 | 0.00 | 0.00 | 0.00 | 100 | 1014.9 |
| 20260507082256 | 34 | 358 | 3.2 | 16.1 | 0.00 | 0.00 | 0.00 | 100 | 1014.7 |
| 20260507081749 | 34 | 327 | 6.4 | 12.9 | 0.00 | 0.00 | 0.00 | 100 | 1014.9 |
| 20260507081519 | 34 | 88 | 4.8 | 11.3 | 0.00 | 0.00 | 0.00 | 100 | 1014.6 |
| 20260507080748 | 34 | 23 | 6.4 | 11.3 | 0.00 | 0.00 | 0.00 | 100 | 1014.8 |
| 20260507080518 | 34 | 45 | 0.0 | 8.0 | 0.00 | 0.00 | 0.00 | 100 | 1014.6 |
| 20260507075744 | 34 | 350 | 0.0 | 14.5 | 0.00 | 0.00 | 0.00 | 100 | 1014.8 |
| 20260507075504 | 34 | 326 | 1.6 | 14.5 | 0.00 | 0.00 | 0.00 | 100 | 1014.3 |
| 20260507074733 | 34 | 147 | 1.6 | 16.1 | 0.00 | 0.00 | 0.00 | 100 | 1014.3 |
| 20260507074233 | 34 | 358 | 0.0 | 17.7 | 0.00 | 0.00 | 0.00 | 100 | 1014.3 |
| 20260507073731 | 34 | 358 | 3.2 | 17.7 | 0.00 | 0.00 | 0.00 | 100 | 1014.6 |
| 20260507073231 | 34 | 71 | 3.2 | 14.5 | 0.00 | 0.00 | 0.00 | 100 | 1014.7 |
| 20260507073006 | 34 | 63 | 4.8 | 14.5 | 0.00 | 0.00 | 0.00 | 100 | 1014.5 |
| 20260507072503 | 35 | 54 | 3.2 | 14.5 | 0.00 | 0.00 | 0.00 | 100 | 1014.6 |
| 20260507071728 | 35 | 40 | 0.0 | 14.5 | 0.00 | 0.00 | 0.00 | 100 | 1014.2 |
| 20260507071231 | 35 | 350 | 3.2 | 16.1 | 0.00 | 0.00 | 0.00 | 100 | 1014.4 |
| 20260507071226 | 35 | 74 | 8.0 | 14.5 | 0.00 | 0.00 | 0.00 | 100 | 1014.2 |
| 20260507070227 | 35 | 338 | 8.0 | 16.1 | 0.00 | 0.00 | 0.00 | 100 | 1014.5 |
| 20260507065725 | 35 | 26 | 8.0 | 14.5 | 0.00 | 0.00 | 0.00 | 100 | 1014.6 |
| 20260507065224 | 35 | 87 | 3.2 | 14.5 | 0.00 | 0.00 | 0.00 | 100 | 1014.4 |
| 20260507064955 | 35 | 56 | 3.2 | 12.9 | 0.00 | 0.00 | 0.00 | 100 | 1014.5 |
| 20260507064830 | 35 | 357 | 1.6 | 17.7 | 0.00 | 0.00 | 0.00 | 100 | 1014.4 |
| 20260507063720 | 35 | 35 | 1.6 | 17.7 | 0.00 | 0.00 | 0.00 | 100 | 1014.4 |
| 20260507063212 | 35 | 70 | 9.7 | 16.1 | 0.00 | 0.00 | 0.00 | 100 | 1014.3 |
| 20260507062658 | 35 | 16 | 8.0 | 16.1 | 0.00 | 0.00 | 0.00 | 100 | 1014.1 |
| 20260507062158 | 35 | 111 | 4.8 | 16.1 | 0.00 | 0.00 | 0.00 | 100 | 1014.4 |
| 20260507061658 | 35 | 47 | 8.0 | 16.1 | 0.00 | 0.00 | 0.00 | 100 | 1014.6 |
| 20260507061158 | 35 | 23 | 9.7 | 19.3 | 0.00 | 0.00 | 0.00 | 100 | 1014.6 |
| 20260507060658 | 35 | 330 | 4.8 | 19.3 | 0.00 | 0.00 | 0.00 | 100 | 1014.2 |
| 20260507060429 | 35 | 63 | 8.0 | 14.5 | 0.00 | 0.00 | 0.00 | 100 | 1014.3 |
| 20260507055658 | 35 | 60 | 1.6 | 12.9 | 0.00 | 0.00 | 0.00 | 100 | 1014.6 |
| 20260507055158 | 35 | 18 | 6.4 | 12.9 | 0.00 | 0.00 | 0.00 | 100 | 1014.8 |
| 20260507054654 | 35 | 14 | 0.0 | 14.5 | 0.00 | 0.00 | 0.00 | 100 | 1014.7 |
| 20260507054149 | 35 | 11 | 6.4 | 14.5 | 0.00 | 0.00 | 0.00 | 100 | 1014.4 |
| 20260507053646 | 35 | 32 | 0.0 | 16.1 | 0.00 | 0.00 | 0.00 | 100 | 1014.3 |
| 20260507053146 | 35 | 43 | 4.8 | 17.7 | 0.00 | 0.00 | 0.00 | 100 | 1014.4 |
| 20260507052646 | 35 | 319 | 6.4 | 17.7 | 0.00 | 0.00 | 0.00 | 100 | 1014.3 |
| 20260507052416 | 35 | 8 | 6.4 | 16.1 | 0.00 | 0.00 | 0.00 | 100 | 1014.3 |
| 20260507052251 | 35 | 358 | 8.0 | 16.1 | 0.00 | 0.00 | 0.00 | 100 | 1014.3 |
| 20260507051144 | 35 | 74 | 3.2 | 16.1 | 0.00 | 0.00 | 0.00 | 100 | 1014.4 |
| 20260507050644 | 35 | 77 | 11.3 | 16.1 | 0.00 | 0.00 | 0.00 | 100 | 1014.2 |
| 20260507050144 | 35 | 358 | 8.0 | 17.7 | 0.00 | 0.00 | 0.00 | 100 | 1014.2 |
| 20260507045644 | 35 | 19 | 6.4 | 17.7 | 0.00 | 0.00 | 0.00 | 100 | 1014.5 |
| 20260507045145 | 35 | 358 | 8.0 | 14.5 | 0.00 | 0.00 | 0.00 | 100 | 1014.4 |
| 20260507044644 | 35 | 52 | 8.0 | 12.9 | 0.00 | 0.00 | 0.00 | 100 | 1014.3 |
| 20260507044144 | 35 | 106 | 3.2 | 12.9 | 0.00 | 0.00 | 0.00 | 100 | 1014.5 |
| 20260507043642 | 35 | 357 | 1.6 | 16.1 | 0.00 | 0.00 | 0.00 | 100 | 1014.6 |
| 20260507043141 | 35 | 68 | 9.7 | 16.1 | 0.00 | 0.00 | 0.00 | 100 | 1014.4 |
| 20260507042640 | 35 | 47 | 6.4 | 16.1 | 0.00 | 0.00 | 0.00 | 100 | 1014.5 |
| 20260507042141 | 35 | 337 | 8.0 | 17.7 | 0.00 | 0.00 | 0.00 | 100 | 1014.4 |
| 20260507041640 | 35 | 358 | 8.0 | 17.7 | 0.00 | 0.00 | 0.00 | 100 | 1014.2 |
| 20260507041140 | 35 | 5 | 0.0 | 14.5 | 0.00 | 0.00 | 0.00 | 100 | 1014.2 |
| 20260507040910 | 35 | 35 | 4.8 | 14.5 | 0.00 | 0.00 | 0.00 | 100 | 1014.5 |
| 20260507040138 | 35 | 11 | 6.4 | 14.5 | 0.00 | 0.00 | 0.00 | 100 | 1014.5 |
| 20260507035637 | 35 | 358 | 6.4 | 17.7 | 0.00 | 0.00 | 0.00 | 100 | 1014.5 |
| 20260507035123 | 35 | 29 | 4.8 | 17.7 | 0.00 | 0.00 | 0.00 | 100 | 1014.4 |
| 20260507034621 | 35 | 258 | 9.7 | 16.1 | 0.00 | 0.00 | 0.00 | 100 | 1014.3 |
| 20260507034351 | 35 | 42 | 1.6 | 16.1 | 0.00 | 0.00 | 0.00 | 100 | 1014.4 |
| 20260507033620 | 35 | 333 | 3.2 | 16.1 | 0.00 | 0.00 | 0.00 | 100 | 1014.3 |
| 20260507033120 | 35 | 337 | 8.0 | 12.9 | 0.00 | 0.00 | 0.00 | 100 | 1014.4 |
| 20260507032620 | 35 | 358 | 6.4 | 14.5 | 0.00 | 0.00 | 0.00 | 100 | 1013.9 |
| 20260507032118 | 35 | 2 | 1.6 | 14.5 | 0.00 | 0.00 | 0.00 | 100 | 1014.2 |
| 20260507031615 | 35 | 49 | 6.4 | 12.9 | 0.00 | 0.00 | 0.00 | 100 | 1014.1 |
| 20260507031116 | 35 | 358 | 0.0 | 20.9 | 0.00 | 0.00 | 0.00 | 100 | 1014.2 |
| 20260507030616 | 35 | 357 | 4.8 | 20.9 | 0.00 | 0.00 | 0.00 | 100 | 1014.2 |
| 20260507030113 | 35 | 351 | 8.0 | 19.3 | 0.00 | 0.00 | 0.00 | 100 | 1013.9 |
| 20260507025612 | 35 | 337 | 6.4 | 19.3 | 0.00 | 0.00 | 0.00 | 100 | 1013.8 |
| 20260507025112 | 35 | 270 | 8.0 | 19.3 | 0.00 | 0.00 | 0.00 | 100 | 1013.9 |
| 20260507024612 | 35 | 344 | 9.7 | 16.1 | 0.00 | 0.00 | 0.00 | 100 | 1013.6 |
| 20260507024343 | 35 | 340 | 6.4 | 16.1 | 0.00 | 0.00 | 0.00 | 100 | 1013.9 |
| 20260507023612 | 35 | 1 | 3.2 | 16.1 | 0.00 | 0.00 | 0.00 | 100 | 1013.9 |
| 20260507023109 | 35 | 313 | 11.3 | 16.1 | 0.00 | 0.00 | 0.00 | 100 | 1013.6 |
| 20260507022609 | 35 | 343 | 6.4 | 14.5 | 0.00 | 0.00 | 0.00 | 100 | 1013.5 |
| 20260507022108 | 35 | 336 | 6.4 | 14.5 | 0.00 | 0.00 | 0.00 | 100 | 1013.6 |
| 20260507021609 | 35 | 14 | 0.0 | 14.5 | 0.00 | 0.00 | 0.00 | 100 | 1013.4 |
| 20260507021337 | 35 | 324 | 11.3 | 16.1 | 0.00 | 0.00 | 0.00 | 100 | 1013.3 |
| 20260507020601 | 35 | 345 | 9.7 | 16.1 | 0.00 | 0.00 | 0.00 | 100 | 1013.2 |
| 20260507015601 | 35 | 37 | 9.7 | 19.3 | 0.00 | 0.00 | 0.00 | 100 | 1013.2 |
| 20260507015101 | 35 | 326 | 9.7 | 16.1 | 0.00 | 0.00 | 0.00 | 100 | 1013.0 |
| 20260507014601 | 35 | 347 | 6.4 | 12.9 | 0.00 | 0.00 | 0.00 | 100 | 1012.9 |
| 20260507014101 | 35 | 18 | 1.6 | 12.9 | 0.00 | 0.00 | 0.00 | 100 | 1012.9 |
| 20260507013545 | 35 | 358 | 3.2 | 12.9 | 0.00 | 0.00 | 0.00 | 100 | 1012.9 |
| 20260507013043 | 35 | 4 | 6.4 | 16.1 | 0.00 | 0.00 | 0.00 | 100 | 1012.6 |
| 20260507012543 | 35 | 30 | 0.0 | 16.1 | 0.00 | 0.00 | 0.00 | 100 | 1012.4 |
| 20260507011548 | 35 | 358 | 4.8 | 12.9 | 0.00 | 0.00 | 0.00 | 100 | 1012.3 |
| 20260507011543 | 35 | 333 | 8.0 | 16.1 | 0.00 | 0.00 | 0.00 | 100 | 1012.3 |
| 20260507010544 | 35 | 358 | 0.0 | 9.7 | 0.00 | 0.00 | 0.00 | 100 | 1012.2 |
| 20260507010045 | 35 | 78 | 4.8 | 14.5 | 0.00 | 0.00 | 0.00 | 100 | 1012.5 |
| 20260507005544 | 35 | 61 | 6.4 | 19.3 | 0.00 | 0.00 | 0.00 | 100 | 1012.4 |
| 20260507005044 | 35 | 317 | 9.7 | 19.3 | 0.00 | 0.00 | 0.00 | 100 | 1012.2 |
| 20260507004544 | 35 | 322 | 11.3 | 17.7 | 0.00 | 0.00 | 0.00 | 100 | 1012.3 |
| 20260507004044 | 35 | 25 | 3.2 | 16.1 | 0.00 | 0.00 | 0.00 | 100 | 1011.9 |
| 20260507003529 | 35 | 26 | 4.8 | 17.7 | 0.00 | 0.00 | 0.00 | 100 | 1011.9 |
| 20260507003258 | 35 | 340 | 0.0 | 17.7 | 0.00 | 0.00 | 0.00 | 100 | 1012.0 |
| 20260507002524 | 35 | 26 | 6.4 | 19.3 | 0.00 | 0.00 | 0.00 | 100 | 1011.8 |
| 20260507002021 | 35 | 94 | 8.0 | 19.3 | 0.00 | 0.00 | 0.00 | 100 | 1011.7 |
| 20260507001522 | 35 | 293 | 3.2 | 14.5 | 0.00 | 0.00 | 0.00 | 100 | 1011.9 |
| 20260507001014 | 35 | 12 | 6.4 | 17.7 | 0.00 | 0.00 | 0.00 | 100 | 1011.9 |
| 20260507000514 | 35 | 15 | 8.0 | 17.7 | 0.00 | 0.00 | 0.00 | 100 | 1011.8 |
| 20260507000012 | 35 | 37 | 8.0 | 14.5 | 0.00 | 0.00 | 0.00 | 100 | 1012.0 |
| 20260506235511 | 35 | 40 | 6.4 | 14.5 | 0.00 | 0.00 | 0.00 | 100 | 1011.7 |
| 20260506235011 | 35 | 331 | 6.4 | 20.9 | 0.00 | 0.00 | 0.00 | 100 | 1011.7 |
| 20260506234009 | 35 | 8 | 9.7 | 20.9 | 0.00 | 0.00 | 0.00 | 100 | 1011.9 |
| 20260506233508 | 35 | 354 | 6.4 | 20.9 | 0.00 | 0.00 | 0.00 | 100 | 1011.7 |
| 20260506233007 | 35 | 296 | 3.2 | 16.1 | 0.00 | 0.00 | 0.00 | 100 | 1011.6 |
| 20260506232501 | 35 | 19 | 4.8 | 17.7 | 0.00 | 0.00 | 0.00 | 100 | 1011.6 |
| 20260506232001 | 35 | 5 | 4.8 | 19.3 | 0.00 | 0.00 | 0.00 | 100 | 1011.6 |
| 20260506231459 | 35 | 23 | 9.7 | 20.9 | 0.00 | 0.00 | 0.00 | 100 | 1011.6 |
| 20260506231231 | 35 | 261 | 9.7 | 20.9 | 0.00 | 0.00 | 0.00 | 100 | 1011.6 |
| 20260506230459 | 35 | 281 | 8.0 | 17.7 | 0.00 | 0.00 | 0.00 | 100 | 1011.6 |
| 20260506225959 | 35 | 331 | 8.0 | 19.3 | 0.00 | 0.00 | 0.00 | 100 | 1011.6 |
| 20260506225459 | 35 | 358 | 9.7 | 19.3 | 0.00 | 0.00 | 0.00 | 100 | 1011.6 |
| 20260506225230 | 35 | 14 | 9.7 | 16.1 | 0.00 | 0.00 | 0.00 | 100 | 1011.6 |
| 20260506224730 | 35 | 37 | 6.4 | 16.1 | 0.00 | 0.00 | 0.00 | 100 | 1011.5 |
| 20260506223959 | 35 | 1 | 9.7 | 22.5 | 0.00 | 0.00 | 0.00 | 100 | 1011.6 |
| 20260506223459 | 35 | 15 | 12.9 | 22.5 | 0.00 | 0.00 | 0.00 | 100 | 1011.6 |
| 20260506223230 | 35 | 357 | 4.8 | 22.5 | 0.00 | 0.00 | 0.00 | 100 | 1011.6 |
| 20260506222459 | 35 | 16 | 8.0 | 17.7 | 0.00 | 0.00 | 0.00 | 100 | 1011.5 |
| 20260506221959 | 35 | 29 | 8.0 | 20.9 | 0.00 | 0.00 | 0.00 | 100 | 1011.5 |
| 20260506221459 | 35 | 25 | 9.7 | 20.9 | 0.00 | 0.00 | 0.00 | 100 | 1011.5 |
| 20260506220959 | 35 | 340 | 8.0 | 20.9 | 0.00 | 0.00 | 0.00 | 100 | 1011.5 |
| 20260506220458 | 35 | 1 | 9.7 | 20.9 | 0.00 | 0.00 | 0.00 | 100 | 1011.6 |
| 20260506215958 | 35 | 310 | 3.2 | 17.7 | 0.00 | 0.00 | 0.00 | 100 | 1011.8 |
| 20260506215459 | 35 | 340 | 9.7 | 19.3 | 0.00 | 0.00 | 0.00 | 100 | 1011.5 |
| 20260506214959 | 35 | 25 | 11.3 | 22.5 | 0.00 | 0.00 | 0.00 | 100 | 1011.4 |
| 20260506214453 | 35 | 322 | 9.7 | 22.5 | 0.00 | 0.00 | 0.00 | 100 | 1011.3 |
| 20260506213953 | 36 | 11 | 8.0 | 25.7 | 0.00 | 0.00 | 0.00 | 100 | 1011.4 |
| 20260506213453 | 35 | 358 | 11.3 | 25.7 | 0.00 | 0.00 | 0.00 | 100 | 1011.3 |
| 20260506212952 | 35 | 30 | 8.0 | 20.9 | 0.00 | 0.00 | 0.00 | 100 | 1011.3 |
| 20260506212452 | 36 | 33 | 11.3 | 20.9 | 0.00 | 0.00 | 0.00 | 100 | 1011.3 |
| 20260506211952 | 35 | 2 | 12.9 | 20.9 | 0.00 | 0.00 | 0.00 | 100 | 1011.4 |
| 20260506211452 | 36 | 358 | 6.4 | 22.5 | 0.00 | 0.00 | 0.00 | 100 | 1011.4 |
| 20260506210953 | 36 | 40 | 9.7 | 22.5 | 0.00 | 0.00 | 0.00 | 100 | 1011.5 |
| 20260506210452 | 36 | 7 | 11.3 | 29.0 | 0.00 | 0.00 | 0.00 | 100 | 1011.5 |
| 20260506205953 | 36 | 319 | 14.5 | 29.0 | 0.00 | 0.00 | 0.00 | 100 | 1011.6 |
| 20260506205453 | 36 | 329 | 9.7 | 22.5 | 0.00 | 0.00 | 0.00 | 100 | 1011.8 |
| 20260506205225 | 36 | 5 | 11.3 | 22.5 | 0.00 | 0.00 | 0.00 | 100 | 1011.6 |
| 20260506204452 | 36 | 298 | 14.5 | 24.1 | 0.00 | 0.00 | 0.00 | 100 | 1011.7 |
| 20260506203953 | 36 | 310 | 9.7 | 24.1 | 0.00 | 0.00 | 0.00 | 100 | 1011.8 |
| 20260506203724 | 36 | 21 | 8.0 | 19.3 | 0.00 | 0.00 | 0.00 | 100 | 1011.8 |
| 20260506202953 | 36 | 358 | 8.0 | 17.7 | 0.00 | 0.00 | 0.00 | 100 | 1011.7 |
| 20260506202452 | 37 | 358 | 6.4 | 19.3 | 0.00 | 0.00 | 0.00 | 100 | 1011.6 |
| 20260506201952 | 37 | 40 | 9.7 | 22.5 | 0.00 | 0.00 | 0.00 | 100 | 1011.5 |
| 20260506201452 | 37 | 344 | 9.7 | 24.1 | 0.00 | 0.00 | 0.00 | 100 | 1011.6 |
| 20260506200953 | 37 | 358 | 12.9 | 24.1 | 0.00 | 0.00 | 0.00 | 100 | 1011.5 |
| 20260506200453 | 37 | 355 | 11.3 | 22.5 | 0.00 | 0.00 | 0.00 | 100 | 1011.5 |
| 20260506195953 | 37 | 67 | 9.7 | 29.0 | 0.00 | 0.00 | 0.00 | 100 | 1011.3 |
| 20260506195451 | 37 | 345 | 11.3 | 29.0 | 0.00 | 0.00 | 0.00 | 100 | 1011.4 |
| 20260506194950 | 37 | 29 | 6.4 | 25.7 | 0.00 | 0.00 | 0.00 | 100 | 1011.2 |
| 20260506194450 | 37 | 352 | 11.3 | 25.7 | 0.00 | 0.00 | 0.00 | 100 | 1011.2 |
| 20260506194221 | 37 | 42 | 11.3 | 24.1 | 0.00 | 0.00 | 0.00 | 100 | 1011.1 |
| 20260506193449 | 37 | 2 | 12.9 | 25.7 | 0.00 | 0.00 | 0.00 | 100 | 1011.0 |
| 20260506193221 | 37 | 37 | 16.1 | 25.7 | 0.00 | 0.00 | 0.00 | 100 | 1011.1 |
| 20260506192450 | 37 | 344 | 6.4 | 24.1 | 0.00 | 0.00 | 0.00 | 100 | 1011.1 |
| 20260506192221 | 37 | 358 | 9.7 | 24.1 | 0.00 | 0.00 | 0.00 | 100 | 1011.2 |
| 20260506191451 | 37 | 22 | 12.9 | 24.1 | 0.00 | 0.00 | 0.00 | 100 | 1011.2 |
| 20260506190950 | 37 | 358 | 14.5 | 24.1 | 0.00 | 0.00 | 0.00 | 100 | 1011.2 |
| 20260506190450 | 38 | 16 | 1.6 | 12.9 | 0.00 | 0.00 | 0.00 | 100 | 1011.2 |
| 20260506185948 | 38 | 11 | 6.4 | 12.9 | 0.00 | 0.00 | 0.00 | 100 | 1011.4 |
| 20260506185448 | 38 | 303 | 0.0 | 14.5 | 0.00 | 0.00 | 0.00 | 100 | 1011.3 |
| 20260506184947 | 38 | 16 | 8.0 | 16.1 | 0.00 | 0.00 | 0.00 | 100 | 1011.2 |
| 20260506184444 | 38 | 338 | 6.4 | 16.1 | 0.00 | 0.00 | 0.00 | 100 | 1011.2 |
| 20260506183943 | 38 | 262 | 6.4 | 12.9 | 0.00 | 0.00 | 0.00 | 100 | 1011.1 |
| 20260506183443 | 38 | 345 | 8.0 | 12.9 | 0.00 | 0.00 | 0.00 | 100 | 1011.1 |
| 20260506183214 | 38 | 2 | 0.0 | 12.9 | 0.00 | 0.00 | 0.00 | 100 | 1011.0 |
| 20260506182443 | 39 | 70 | 8.0 | 12.9 | 0.00 | 0.00 | 0.00 | 100 | 1011.0 |
| 20260506182214 | 38 | 358 | 9.7 | 12.9 | 0.00 | 0.00 | 0.00 | 100 | 1011.0 |
| 20260506181442 | 38 | 317 | 8.0 | 12.9 | 0.00 | 0.00 | 0.00 | 100 | 1011.1 |
| 20260506180949 | 38 | 7 | 4.8 | 9.7 | 0.00 | 0.00 | 0.00 | 100 | 1011.1 |
| 20260506180943 | 38 | 1 | 3.2 | 12.9 | 0.00 | 0.00 | 0.00 | 100 | 1011.1 |
| 20260506175943 | 38 | 326 | 1.6 | 12.9 | 0.00 | 0.00 | 0.00 | 100 | 1010.9 |
| 20260506175443 | 38 | 5 | 4.8 | 12.9 | 0.00 | 0.00 | 0.00 | 100 | 1010.8 |
| 20260506174943 | 38 | 32 | 3.2 | 9.7 | 0.00 | 0.00 | 0.00 | 100 | 1010.8 |
| 20260506174443 | 38 | 315 | 0.0 | 11.3 | 0.00 | 0.00 | 0.00 | 100 | 1010.8 |
| 20260506173944 | 38 | 67 | 0.0 | 12.9 | 0.00 | 0.00 | 0.00 | 100 | 1010.7 |
| 20260506173443 | 38 | 46 | 3.2 | 14.5 | 0.00 | 0.00 | 0.00 | 100 | 1010.7 |
| 20260506172943 | 37 | 149 | 4.8 | 14.5 | 0.00 | 0.00 | 0.00 | 100 | 1010.7 |
| 20260506172444 | 37 | 326 | 6.4 | 14.5 | 0.00 | 0.00 | 0.00 | 100 | 1010.8 |
| 20260506171945 | 37 | 36 | 3.2 | 14.5 | 0.00 | 0.00 | 0.00 | 100 | 1010.9 |
| 20260506171445 | 37 | 0 | 1.6 | 16.1 | 0.00 | 0.00 | 0.00 | 100 | 1010.9 |
| 20260506171216 | 37 | 358 | 1.6 | 16.1 | 0.00 | 0.00 | 0.00 | 100 | 1010.8 |
| 20260506170442 | 36 | 358 | 9.7 | 20.9 | 0.00 | 0.00 | 0.00 | 100 | 1010.9 |
| 20260506170212 | 36 | 40 | 6.4 | 20.9 | 0.00 | 0.00 | 0.00 | 100 | 1010.8 |
| 20260506165712 | 36 | 49 | 0.0 | 16.1 | 0.00 | 0.00 | 0.00 | 100 | 1010.9 |
| 20260506164939 | 36 | 35 | 4.8 | 17.7 | 0.00 | 0.00 | 0.00 | 100 | 1010.9 |
| 20260506164439 | 36 | 45 | 6.4 | 17.7 | 0.00 | 0.00 | 0.00 | 100 | 1011.1 |
| 20260506163939 | 35 | 82 | 1.6 | 20.9 | 0.00 | 0.00 | 0.00 | 100 | 1011.6 |
| 20260506163438 | 35 | 70 | 6.4 | 20.9 | 0.00 | 0.00 | 0.00 | 100 | 1011.6 |
| 20260506162931 | 36 | 52 | 6.4 | 16.1 | 0.00 | 0.00 | 0.00 | 100 | 1011.6 |
| 20260506162702 | 36 | 358 | 8.0 | 19.3 | 0.00 | 0.00 | 0.00 | 100 | 1011.5 |
| 20260506161925 | 35 | 326 | 11.3 | 22.5 | 0.00 | 0.00 | 0.00 | 100 | 1011.6 |